Simultaneous Nadir Overpasses (SNOs) Predictions

Prediction of SNOs between GOES-16 and LANDSAT-8 Satellite Orbit:

Table of predicted SNOs for the next 14.0 days since TLE Epoch: 1/8/2022
Index Date Time (GOES-16) GOES-16 Lat,Lon LANDSAT-8 Lat,Lon Distance(km) Time Diff (sec)
1 01/09/2022 15:00:39 -0.00, -75.20 -0.61, -72.43 315.15 80
2 01/10/2022 03:24:43 -0.00, -75.18 -0.50, -77.62 276.64 80
3 01/12/2022 03:09:51 0.00, -75.20 0.11, -74.66 61.18 80
4 01/14/2022 02:57:40 0.01, -75.22 0.77, -71.71 399.29 80
5 01/14/2022 15:21:35 -0.01, -75.24 0.36, -76.86 184.52 80
6 01/16/2022 15:06:44 -0.01, -75.27 -0.32, -73.91 154.09 80
7 01/17/2022 03:30:47 0.01, -75.26 -0.79, -79.10 437.24 80
8 01/18/2022 14:54:32 -0.02, -75.29 -0.93, -70.95 493.20 80
9 01/19/2022 03:18:35 0.01, -75.28 -0.17, -76.14 97.95 80
10 01/21/2022 03:03:43 0.00, -75.32 0.45, -73.19 242.28 80
11 01/21/2022 15:27:39 0.01, -75.34 0.62, -78.35 341.14 80
